ASIASAT 4

Last updated on Mon Oct 14 2024 00:02:37 GMT+0000 (Coordinated Universal Time)

1 27718U 03014A 24287.54419948 -.00000220 00000+0 00000+0 0 9993 2 27718 3.1298 83.4208 0003590 133.6139 149.0399 1.00270794 39162
UTC large
Height (km)
Speed (km/s)
/
Latitude / Longitude
Inclination (degrees)
Orbital Period (minutes)
Azimuth
Elevation
Range (km)
Doppler Factor

Next 0 passes for location: London (51.5072 / 0.1276)

Sorry there are no passes over London.